Time,TemperatureF,DewpointF,PressureIn,WindDirection,WindDirectionDegrees,WindSpeedMPH,WindSpeedGustMPH,Humidity,HourlyPrecipIn,Conditions,Clouds,dailyrainin,SoftwareType,DateUTC
2013-01-07 00:00:00,39.0,28.0,30.06,West,274,2.0,10.0,63,-99.99,,,-99.99,,2013-01-07 05:00:00,
2013-01-07 00:22:00,39.0,28.0,30.06,West,274,2.0,10.0,63,-99.99,,,-99.99,,2013-01-07 05:22:00,
2013-01-07 00:33:00,39.0,28.0,30.06,West,274,2.0,10.0,63,-99.99,,,-99.99,,2013-01-07 05:33:00,
2013-01-07 00:43:00,39.0,28.0,30.06,West,274,2.0,10.0,63,-99.99,,,-99.99,,2013-01-07 05:43:00,
2013-01-07 00:53:00,39.0,28.0,30.06,West,274,2.0,10.0,63,-99.99,,,-99.99,,2013-01-07 05:53:00,
2013-01-07 01:00:00,36.0,27.0,30.09,WSW,251,0.0,-999.0,68,-99.99,,,-99.99,,2013-01-07 06:00:00,
2013-01-07 01:32:00,36.0,27.0,30.09,WSW,251,0.0,-999.0,68,-99.99,,,-99.99,,2013-01-07 06:32:00,
2013-01-07 01:42:00,36.0,27.0,30.09,WSW,251,0.0,-999.0,68,-99.99,,,-99.99,,2013-01-07 06:42:00,
2013-01-07 01:52:00,36.0,27.0,30.09,WSW,251,0.0,-999.0,68,-99.99,,,-99.99,,2013-01-07 06:52:00,
2013-01-07 02:00:00,31.0,26.0,30.09,SW,227,0.0,4.0,82,-99.99,,,-99.99,,2013-01-07 07:00:00,
2013-01-07 02:22:00,31.0,26.0,30.09,SW,227,0.0,4.0,82,-99.99,,,-99.99,,2013-01-07 07:22:00,
2013-01-07 02:33:00,31.0,26.0,30.09,SW,227,0.0,4.0,82,-99.99,,,-99.99,,2013-01-07 07:33:00,
2013-01-07 02:43:00,31.0,26.0,30.09,SW,227,0.0,4.0,82,-99.99,,,-99.99,,2013-01-07 07:43:00,
2013-01-07 02:53:00,31.0,26.0,30.09,SW,227,0.0,4.0,82,-99.99,,,-99.99,,2013-01-07 07:53:00,
2013-01-07 03:00:00,35.0,27.0,30.12,NW,321,5.0,5.0,73,-99.99,,,-99.99,,2013-01-07 08:00:00,
2013-01-07 03:22:00,35.0,27.0,30.12,NW,321,5.0,5.0,73,-99.99,,,-99.99,,2013-01-07 08:22:00,
2013-01-07 03:33:00,35.0,27.0,30.12,NW,321,5.0,5.0,73,-99.99,,,-99.99,,2013-01-07 08:33:00,
2013-01-07 03:43:00,35.0,27.0,30.12,NW,321,5.0,5.0,73,-99.99,,,-99.99,,2013-01-07 08:43:00,
2013-01-07 03:53:00,35.0,27.0,30.12,NW,321,5.0,5.0,73,-99.99,,,-99.99,,2013-01-07 08:53:00,
2013-01-07 04:00:00,35.0,26.0,30.12,WNW,289,2.0,7.0,71,-99.99,,,-99.99,,2013-01-07 09:00:00,
2013-01-07 04:23:00,35.0,26.0,30.12,WNW,289,2.0,7.0,71,-99.99,,,-99.99,,2013-01-07 09:23:00,
2013-01-07 04:32:00,35.0,26.0,30.12,WNW,289,2.0,7.0,71,-99.99,,,-99.99,,2013-01-07 09:32:00,
2013-01-07 04:42:00,35.0,26.0,30.12,WNW,289,2.0,7.0,71,-99.99,,,-99.99,,2013-01-07 09:42:00,
2013-01-07 04:53:00,35.0,26.0,30.12,WNW,289,2.0,7.0,71,-99.99,,,-99.99,,2013-01-07 09:53:00,
2013-01-07 05:00:00,32.0,25.0,30.15,WSW,240,0.0,5.0,76,-99.99,,,-99.99,,2013-01-07 10:00:00,
2013-01-07 05:22:00,32.0,25.0,30.15,WSW,240,0.0,5.0,76,-99.99,,,-99.99,,2013-01-07 10:22:00,
2013-01-07 05:33:00,32.0,25.0,30.15,WSW,240,0.0,5.0,76,-99.99,,,-99.99,,2013-01-07 10:33:00,
2013-01-07 05:43:00,32.0,25.0,30.15,WSW,240,0.0,5.0,76,-99.99,,,-99.99,,2013-01-07 10:43:00,
2013-01-07 05:52:00,32.0,25.0,30.15,WSW,240,0.0,5.0,76,-99.99,,,-99.99,,2013-01-07 10:52:00,
2013-01-07 06:00:00,29.0,25.0,30.18,SW,232,0.0,3.0,88,-99.99,,,-99.99,,2013-01-07 11:00:00,
2013-01-07 06:23:00,29.0,25.0,30.18,SW,232,0.0,3.0,88,-99.99,,,-99.99,,2013-01-07 11:23:00,
2013-01-07 06:33:00,29.0,25.0,30.18,SW,232,0.0,3.0,88,-99.99,,,-99.99,,2013-01-07 11:33:00,
2013-01-07 06:43:00,29.0,25.0,30.18,SW,232,0.0,3.0,88,-99.99,,,-99.99,,2013-01-07 11:43:00,
2013-01-07 06:53:00,29.0,25.0,30.18,SW,232,0.0,3.0,88,-99.99,,,-99.99,,2013-01-07 11:53:00,
2013-01-07 07:00:00,27.0,24.0,30.21,WNW,292,0.0,3.0,92,-99.99,,,-99.99,,2013-01-07 12:00:00,
2013-01-07 07:23:00,27.0,24.0,30.21,WNW,292,0.0,3.0,92,-99.99,,,-99.99,,2013-01-07 12:23:00,
2013-01-07 07:33:00,27.0,24.0,30.21,WNW,292,0.0,3.0,92,-99.99,,,-99.99,,2013-01-07 12:33:00,
2013-01-07 07:43:00,27.0,24.0,30.21,WNW,292,0.0,3.0,92,-99.99,,,-99.99,,2013-01-07 12:43:00,
2013-01-07 07:53:00,27.0,24.0,30.21,WNW,292,0.0,3.0,92,-99.99,,,-99.99,,2013-01-07 12:53:00,
2013-01-07 08:00:00,28.0,24.0,30.24,NW,309,0.0,5.0,90,-99.99,,,-99.99,,2013-01-07 13:00:00,
2013-01-07 08:23:00,28.0,24.0,30.24,NW,309,0.0,5.0,90,-99.99,,,-99.99,,2013-01-07 13:23:00,
2013-01-07 08:33:00,28.0,24.0,30.24,NW,309,0.0,5.0,90,-99.99,,,-99.99,,2013-01-07 13:33:00,
2013-01-07 08:43:00,28.0,24.0,30.24,NW,309,0.0,5.0,90,-99.99,,,-99.99,,2013-01-07 13:43:00,
2013-01-07 08:53:00,28.0,24.0,30.24,NW,309,0.0,5.0,90,-99.99,,,-99.99,,2013-01-07 13:53:00,
2013-01-07 09:00:00,39.0,29.0,30.30,NW,308,4.0,9.0,67,-99.99,,,-99.99,,2013-01-07 14:00:00,
2013-01-07 09:23:00,39.0,29.0,30.30,NW,308,4.0,9.0,67,-99.99,,,-99.99,,2013-01-07 14:23:00,
2013-01-07 09:33:00,39.0,29.0,30.30,NW,308,4.0,9.0,67,-99.99,,,-99.99,,2013-01-07 14:33:00,
2013-01-07 09:43:00,39.0,29.0,30.30,NW,308,4.0,9.0,67,-99.99,,,-99.99,,2013-01-07 14:43:00,
2013-01-07 09:53:00,39.0,29.0,30.30,NW,308,4.0,9.0,67,-99.99,,,-99.99,,2013-01-07 14:53:00,
2013-01-07 10:00:00,43.0,29.0,30.30,NNW,345,4.0,10.0,58,-99.99,,,-99.99,,2013-01-07 15:00:00,
2013-01-07 10:23:00,43.0,29.0,30.30,NNW,345,4.0,10.0,58,-99.99,,,-99.99,,2013-01-07 15:23:00,
2013-01-07 10:33:00,43.0,29.0,30.30,NNW,345,4.0,10.0,58,-99.99,,,-99.99,,2013-01-07 15:33:00,
2013-01-07 10:43:00,43.0,29.0,30.30,NNW,345,4.0,10.0,58,-99.99,,,-99.99,,2013-01-07 15:43:00,
2013-01-07 10:53:00,43.0,29.0,30.30,NNW,345,4.0,10.0,58,-99.99,,,-99.99,,2013-01-07 15:53:00,
2013-01-07 11:00:00,45.0,28.0,30.33,NNW,342,10.0,17.0,52,-99.99,,,-99.99,,2013-01-07 16:00:00,
2013-01-07 11:23:00,45.0,28.0,30.33,NNW,342,10.0,17.0,52,-99.99,,,-99.99,,2013-01-07 16:23:00,
2013-01-07 11:33:00,45.0,28.0,30.33,NNW,342,10.0,17.0,52,-99.99,,,-99.99,,2013-01-07 16:33:00,
2013-01-07 11:43:00,45.0,28.0,30.33,NNW,342,10.0,17.0,52,-99.99,,,-99.99,,2013-01-07 16:43:00,
2013-01-07 11:53:00,45.0,28.0,30.33,NNW,342,10.0,17.0,52,-99.99,,,-99.99,,2013-01-07 16:53:00,
2013-01-07 12:00:00,45.0,27.0,30.33,NNW,333,11.0,17.0,49,-99.99,,,-99.99,,2013-01-07 17:00:00,
2013-01-07 12:23:00,45.0,27.0,30.33,NNW,333,11.0,17.0,49,-99.99,,,-99.99,,2013-01-07 17:23:00,
2013-01-07 12:33:00,45.0,27.0,30.33,NNW,333,11.0,17.0,49,-99.99,,,-99.99,,2013-01-07 17:33:00,
2013-01-07 12:43:00,45.0,27.0,30.33,NNW,333,11.0,17.0,49,-99.99,,,-99.99,,2013-01-07 17:43:00,
2013-01-07 12:53:00,45.0,27.0,30.33,NNW,333,11.0,17.0,49,-99.99,,,-99.99,,2013-01-07 17:53:00,
2013-01-07 13:00:00,47.0,28.0,30.33,NW,316,0.0,14.0,47,-99.99,,,-99.99,,2013-01-07 18:00:00,
2013-01-07 13:23:00,47.0,28.0,30.33,NW,316,0.0,14.0,47,-99.99,,,-99.99,,2013-01-07 18:23:00,
2013-01-07 13:33:00,47.0,28.0,30.33,NW,316,0.0,14.0,47,-99.99,,,-99.99,,2013-01-07 18:33:00,
2013-01-07 13:43:00,47.0,28.0,30.33,NW,316,0.0,14.0,47,-99.99,,,-99.99,,2013-01-07 18:43:00,
2013-01-07 13:53:00,47.0,28.0,30.33,NW,316,0.0,14.0,47,-99.99,,,-99.99,,2013-01-07 18:53:00,
2013-01-07 14:00:00,46.0,26.0,30.33,NW,323,6.0,16.0,45,-99.99,,,-99.99,,2013-01-07 19:00:00,
2013-01-07 14:23:00,46.0,26.0,30.33,NW,323,6.0,16.0,45,-99.99,,,-99.99,,2013-01-07 19:23:00,
2013-01-07 14:33:00,46.0,26.0,30.33,NW,323,6.0,16.0,45,-99.99,,,-99.99,,2013-01-07 19:33:00,
2013-01-07 14:43:00,46.0,26.0,30.33,NW,323,6.0,16.0,45,-99.99,,,-99.99,,2013-01-07 19:43:00,
2013-01-07 14:53:00,46.0,26.0,30.33,NW,323,6.0,16.0,45,-99.99,,,-99.99,,2013-01-07 19:53:00,
2013-01-07 15:00:00,47.0,26.0,30.36,WNW,286,4.0,13.0,44,-99.99,,,-99.99,,2013-01-07 20:00:00,
2013-01-07 15:23:00,47.0,26.0,30.36,WNW,286,4.0,13.0,44,-99.99,,,-99.99,,2013-01-07 20:23:00,
2013-01-07 15:33:00,47.0,26.0,30.36,WNW,286,4.0,13.0,44,-99.99,,,-99.99,,2013-01-07 20:33:00,
2013-01-07 15:43:00,47.0,26.0,30.36,WNW,286,4.0,13.0,44,-99.99,,,-99.99,,2013-01-07 20:43:00,
2013-01-07 15:53:00,47.0,26.0,30.36,WNW,286,4.0,13.0,44,-99.99,,,-99.99,,2013-01-07 20:53:00,
2013-01-07 16:00:00,46.0,25.0,30.36,NW,317,0.0,11.0,44,-99.99,,,-99.99,,2013-01-07 21:00:00,
2013-01-07 16:23:00,46.0,25.0,30.36,NW,317,0.0,11.0,44,-99.99,,,-99.99,,2013-01-07 21:23:00,
2013-01-07 16:33:00,46.0,25.0,30.36,NW,317,0.0,11.0,44,-99.99,,,-99.99,,2013-01-07 21:33:00,
2013-01-07 16:43:00,46.0,25.0,30.36,NW,317,0.0,11.0,44,-99.99,,,-99.99,,2013-01-07 21:43:00,
2013-01-07 16:53:00,46.0,25.0,30.36,NW,317,0.0,11.0,44,-99.99,,,-99.99,,2013-01-07 21:53:00,
2013-01-07 17:00:00,38.0,28.0,30.39,South,181,0.0,8.0,66,-99.99,,,-99.99,,2013-01-07 22:00:00,
2013-01-07 17:23:00,38.0,28.0,30.39,South,181,0.0,8.0,66,-99.99,,,-99.99,,2013-01-07 22:23:00,
2013-01-07 17:33:00,38.0,28.0,30.39,South,181,0.0,8.0,66,-99.99,,,-99.99,,2013-01-07 22:33:00,
2013-01-07 17:43:00,38.0,28.0,30.39,South,181,0.0,8.0,66,-99.99,,,-99.99,,2013-01-07 22:43:00,
2013-01-07 17:53:00,38.0,28.0,30.39,South,181,0.0,8.0,66,-99.99,,,-99.99,,2013-01-07 22:53:00,
2013-01-07 18:00:00,31.0,26.0,30.39,West,281,0.0,0.0,80,-99.99,,,-99.99,,2013-01-07 23:00:00,
2013-01-07 18:23:00,31.0,26.0,30.39,West,281,0.0,0.0,80,-99.99,,,-99.99,,2013-01-07 23:23:00,
2013-01-07 18:33:00,31.0,26.0,30.39,West,281,0.0,0.0,80,-99.99,,,-99.99,,2013-01-07 23:33:00,
2013-01-07 18:43:00,31.0,26.0,30.39,West,281,0.0,0.0,80,-99.99,,,-99.99,,2013-01-07 23:43:00,
2013-01-07 18:53:00,31.0,26.0,30.39,West,281,0.0,0.0,80,-99.99,,,-99.99,,2013-01-07 23:53:00,
2013-01-07 19:00:00,28.0,23.0,30.42,NE,40,0.0,0.0,86,-99.99,,,-99.99,,2013-01-08 00:00:00,
2013-01-07 19:23:00,28.0,23.0,30.42,NE,40,0.0,0.0,86,-99.99,,,-99.99,,2013-01-08 00:23:00,
2013-01-07 19:33:00,28.0,23.0,30.42,NE,40,0.0,0.0,86,-99.99,,,-99.99,,2013-01-08 00:33:00,
2013-01-07 19:43:00,28.0,23.0,30.42,NE,40,0.0,0.0,86,-99.99,,,-99.99,,2013-01-08 00:43:00,
2013-01-07 19:53:00,28.0,23.0,30.42,NE,40,0.0,0.0,86,-99.99,,,-99.99,,2013-01-08 00:53:00,
2013-01-07 20:00:00,27.0,23.0,30.39,South,178,0.0,0.0,89,-99.99,,,-99.99,,2013-01-08 01:00:00,
2013-01-07 20:22:00,27.0,23.0,30.39,South,178,0.0,0.0,89,-99.99,,,-99.99,,2013-01-08 01:22:00,
2013-01-07 20:33:00,27.0,23.0,30.39,South,178,0.0,0.0,89,-99.99,,,-99.99,,2013-01-08 01:33:00,
2013-01-07 20:42:00,27.0,23.0,30.39,South,178,0.0,0.0,89,-99.99,,,-99.99,,2013-01-08 01:42:00,
2013-01-07 20:53:00,27.0,23.0,30.39,South,178,0.0,0.0,89,-99.99,,,-99.99,,2013-01-08 01:53:00,
2013-01-07 21:00:00,26.0,22.0,30.39,SE,146,0.0,0.0,90,-99.99,,,-99.99,,2013-01-08 02:00:00,
2013-01-07 21:22:00,26.0,22.0,30.39,SE,146,0.0,0.0,90,-99.99,,,-99.99,,2013-01-08 02:22:00,
2013-01-07 21:33:00,26.0,22.0,30.39,SE,146,0.0,0.0,90,-99.99,,,-99.99,,2013-01-08 02:33:00,
2013-01-07 21:43:00,26.0,22.0,30.39,SE,146,0.0,0.0,90,-99.99,,,-99.99,,2013-01-08 02:43:00,
2013-01-07 21:53:00,26.0,22.0,30.39,SE,146,0.0,0.0,90,-99.99,,,-99.99,,2013-01-08 02:53:00,
2013-01-07 22:00:00,25.0,22.0,30.42,SSW,196,0.0,0.0,91,-99.99,,,-99.99,,2013-01-08 03:00:00,
2013-01-07 22:22:00,25.0,22.0,30.42,SSW,196,0.0,0.0,91,-99.99,,,-99.99,,2013-01-08 03:22:00,
2013-01-07 22:33:00,25.0,22.0,30.42,SSW,196,0.0,0.0,91,-99.99,,,-99.99,,2013-01-08 03:33:00,
2013-01-07 22:43:00,25.0,22.0,30.42,SSW,196,0.0,0.0,91,-99.99,,,-99.99,,2013-01-08 03:43:00,
2013-01-07 22:53:00,25.0,22.0,30.42,SSW,196,0.0,0.0,91,-99.99,,,-99.99,,2013-01-08 03:53:00,
2013-01-07 23:00:00,24.0,21.0,30.42,SSE,164,0.0,0.0,92,-99.99,,,-99.99,,2013-01-08 04:00:00,
2013-01-07 23:22:00,24.0,21.0,30.42,SSE,164,0.0,0.0,92,-99.99,,,-99.99,,2013-01-08 04:22:00,
2013-01-07 23:32:00,24.0,21.0,30.42,SSE,164,0.0,0.0,92,-99.99,,,-99.99,,2013-01-08 04:32:00,
2013-01-07 23:43:00,24.0,21.0,30.42,SSE,164,0.0,0.0,92,-99.99,,,-99.99,,2013-01-08 04:43:00,
2013-01-07 23:52:00,24.0,21.0,30.42,SSE,164,0.0,0.0,92,-99.99,,,-99.99,,2013-01-08 04:52:00,